Flag for Burkina Faso Weather past 2 weeks in Koudougou, Burkina Faso

Now
82 °F

Passing clouds.


Feels Like: 89 °F
Forecast: N/A
Wind: 3 mph from North

Location: Ouagadougou Airport

Current Time: Aug 31, 2015 at 7:51:15 PM

Latest Report: Aug 31, 2015 at 7:00 PM


Visibility: N/A

Pressure: 29.95 "Hg

Humidity: 79%

Dew point: 75 °F

Location of KoudougouLocation

Historic Weather in Koudougou — Graph

°F

Koudougou temperature yesterday

Maximum temperature yesterday: 84 °F (at 10:00 AM)
Minimum temperature yesterday: 73 °F (at 10:00 PM)
Average temperature yesterday: 77 °F

Past Weeks' High & Low Weather Summary

 TemperatureHumidityPressure
High93 °F (Aug 24, 2:00 PM)100% (Aug 17, 4:00 PM)30.07 "Hg (Aug 17, 4:00 PM)
Low70 °F (Aug 26, 8:00 PM)52% (Aug 23, 3:00 PM)29.80 "Hg (Aug 24, 4:00 PM)
Average80 °F84%29.94 "Hg
* Reported Aug 16 6:00 PM — Aug 31 6:00 PM, Koudougou, Weather by CustomWeather, © 2015

Note: Actual official high and low records may vary slightly from our data, if they occured in-between our weather recording intervals... More about our weather records

Advertising

Koudougou weather history for previous 24 hours

 ConditionsComfort  
Time TempWeatherWind HumidityBarometerVisibility
6:00 PM
Mon, Aug 31
84 °FScattered clouds.No wind74%29.95 "HgN/A
5:00 PM86 °FPassing clouds.5 mph70%29.92 "HgN/A
4:00 PM88 °FScattered clouds.7 mph62%29.92 "HgN/A
3:00 PM88 °FScattered clouds.7 mph66%29.92 "HgN/A
2:00 PM86 °FScattered clouds.6 mph70%29.95 "HgN/A
1:00 PM86 °FScattered clouds.7 mph70%29.98 "HgN/A
12:00 PM84 °FScattered clouds.8 mph74%30.01 "HgN/A
11:00 AM82 °FScattered clouds.7 mph79%30.04 "HgN/A
10:00 AM82 °FScattered clouds.7 mph79%30.04 "Hg5 mi
9:00 AM79 °FPassing clouds.10 mph84%30.01 "Hg5 mi
8:00 AM75 °FPassing clouds.7 mph94%30.01 "Hg5 mi
7:00 AM73 °FPartly sunny.8 mph100%29.98 "Hg5 mi
6:00 AM73 °FPassing clouds.No wind100%29.98 "HgN/A
5:00 AM73 °FPassing clouds.3 mph100%29.95 "HgN/A
4:00 AM73 °FPassing clouds.2 mph100%29.95 "HgN/A
3:00 AM73 °FPassing clouds.2 mph100%29.98 "HgN/A
2:00 AM73 °FPassing clouds.5 mph100%29.98 "HgN/A
1:00 AM73 °FPassing clouds.3 mph100%30.01 "HgN/A
12:00 AM73 °FPassing clouds.3 mph100%30.01 "HgN/A
11:00 PM
Sun, Aug 30
73 °FPassing clouds.2 mph100%30.01 "HgN/A
10:00 PM73 °FThunderstorms. Passing clouds.No wind100%30.01 "HgN/A
9:00 PM75 °FThunderstorms. Passing clouds.2 mph94%30.01 "HgN/A
8:00 PM75 °FThunderstorms. Passing clouds.5 mph94%30.01 "HgN/A
7:00 PM75 °FThunderstorms. Passing clouds.6 mph94%29.98 "Hg5 mi
Weather by CustomWeather, © 2015

See weather overviewHow to use our weather pages